TimePDT,TemperatureF,Dew PointF,Humidity,Sea Level PressureIn,VisibilityMPH,Wind Direction,Wind SpeedMPH,Gust SpeedMPH,PrecipitationIn,Events,Conditions,WindDirDegrees,DateUTC
12:15 AM,57.2,53.6,88,29.79,10.0,South,5.8,-,N/A,,Mostly Cloudy,170,2013-09-22 07:15:00
12:35 AM,57.2,53.6,88,29.80,10.0,SE,4.6,-,N/A,,Overcast,140,2013-09-22 07:35:00
12:55 AM,57.2,53.6,88,29.79,10.0,SE,4.6,-,N/A,,Overcast,140,2013-09-22 07:55:00
1:15 AM,57.2,53.6,88,29.79,10.0,South,4.6,-,N/A,,Mostly Cloudy,170,2013-09-22 08:15:00
1:35 AM,57.2,53.6,88,29.80,7.0,SSE,4.6,-,N/A,,Mostly Cloudy,150,2013-09-22 08:35:00
1:55 AM,57.2,53.6,88,29.80,6.0,SE,4.6,-,0.01,,Mostly Cloudy,140,2013-09-22 08:55:00
2:15 AM,57.2,53.6,88,29.80,10.0,SSE,5.8,-,N/A,,Overcast,150,2013-09-22 09:15:00
2:35 AM,57.2,53.6,88,29.79,10.0,SSE,6.9,-,N/A,,Mostly Cloudy,150,2013-09-22 09:35:00
2:55 AM,57.2,51.8,82,29.79,10.0,SSE,8.1,-,N/A,,Overcast,160,2013-09-22 09:55:00
3:15 AM,57.2,53.6,88,29.79,10.0,SSE,9.2,-,N/A,,Overcast,160,2013-09-22 10:15:00
3:35 AM,57.2,51.8,82,29.79,10.0,SSE,9.2,-,N/A,,Overcast,150,2013-09-22 10:35:00
3:55 AM,57.2,51.8,82,29.79,10.0,SE,8.1,-,N/A,,Overcast,130,2013-09-22 10:55:00
4:15 AM,57.2,51.8,82,29.79,10.0,SSE,6.9,-,N/A,,Overcast,150,2013-09-22 11:15:00
4:35 AM,57.2,51.8,82,29.78,10.0,SE,9.2,-,N/A,,Mostly Cloudy,140,2013-09-22 11:35:00
4:55 AM,57.2,51.8,82,29.78,10.0,SE,8.1,-,N/A,,Mostly Cloudy,140,2013-09-22 11:55:00
5:15 AM,57.2,51.8,82,29.78,10.0,SSE,10.4,-,N/A,,Mostly Cloudy,150,2013-09-22 12:15:00
5:35 AM,57.2,50.0,77,29.77,10.0,SE,10.4,16.1,N/A,,Mostly Cloudy,140,2013-09-22 12:35:00
5:55 AM,57.2,50.0,77,29.77,10.0,SSE,10.4,-,N/A,,Overcast,150,2013-09-22 12:55:00
6:15 AM,57.2,50.0,77,29.78,10.0,SSE,9.2,-,N/A,,Overcast,160,2013-09-22 13:15:00
6:35 AM,57.2,51.8,82,29.78,10.0,SSE,10.4,17.3,N/A,,Overcast,150,2013-09-22 13:35:00
6:55 AM,57.2,51.8,82,29.78,10.0,SE,11.5,16.1,N/A,,Overcast,140,2013-09-22 13:55:00
7:15 AM,57.2,51.8,82,29.77,10.0,SSE,12.7,17.3,N/A,,Overcast,150,2013-09-22 14:15:00
7:35 AM,55.4,51.8,88,29.77,10.0,SSE,11.5,16.1,N/A,,Overcast,160,2013-09-22 14:35:00
7:55 AM,55.4,51.8,88,29.77,9.0,SSE,11.5,16.1,0.02,,Overcast,150,2013-09-22 14:55:00
8:15 AM,55.4,51.8,88,29.76,10.0,SSE,10.4,16.1,0.01,,Overcast,150,2013-09-22 15:15:00
8:35 AM,57.2,51.8,82,29.76,10.0,SSE,11.5,17.3,0.01,,Overcast,150,2013-09-22 15:35:00
8:55 AM,57.2,51.8,82,29.75,10.0,SE,10.4,16.1,0.01,,Overcast,140,2013-09-22 15:55:00
9:15 AM,57.2,51.8,82,29.74,10.0,SSE,16.1,20.7,N/A,,Overcast,150,2013-09-22 16:15:00
9:35 AM,57.2,50.0,77,29.74,10.0,SSE,10.4,25.3,N/A,,Overcast,150,2013-09-22 16:35:00
9:55 AM,57.2,51.8,82,29.73,10.0,SSE,12.7,26.5,N/A,,Mostly Cloudy,150,2013-09-22 16:55:00
10:15 AM,57.2,51.8,82,29.72,10.0,SSE,15.0,21.9,N/A,,Overcast,160,2013-09-22 17:15:00
10:35 AM,59.0,50.0,72,29.70,10.0,SSE,18.4,26.5,N/A,,Mostly Cloudy,160,2013-09-22 17:35:00
10:55 AM,60.8,51.8,72,29.70,10.0,SSE,16.1,26.5,N/A,,Overcast,150,2013-09-22 17:55:00
11:15 AM,59.0,50.0,72,29.69,10.0,SSE,16.1,27.6,N/A,,Overcast,160,2013-09-22 18:15:00
11:35 AM,59.0,50.0,72,29.68,10.0,SSE,17.3,27.6,N/A,,Overcast,160,2013-09-22 18:35:00
11:55 AM,59.0,50.0,72,29.67,10.0,SSE,17.3,25.3,N/A,,Overcast,150,2013-09-22 18:55:00
12:15 PM,57.2,50.0,77,29.68,10.0,SSE,20.7,28.8,N/A,,Overcast,160,2013-09-22 19:15:00
12:35 PM,57.2,51.8,82,29.65,6.0,SE,17.3,27.6,0.05,,Overcast,140,2013-09-22 19:35:00
12:55 PM,57.2,51.8,82,29.65,9.0,SSE,17.3,27.6,0.09,,Mostly Cloudy,150,2013-09-22 19:55:00
1:15 PM,57.2,51.8,82,29.67,10.0,SSE,17.3,26.5,0.02,,Overcast,160,2013-09-22 20:15:00
1:35 PM,57.2,51.8,82,29.67,6.0,SSE,17.3,25.3,0.06,,Overcast,150,2013-09-22 20:35:00
1:55 PM,57.2,51.8,82,29.69,7.0,SSE,12.7,18.4,0.11,,Overcast,160,2013-09-22 20:55:00
2:15 PM,55.4,51.8,88,29.69,5.0,SSE,15.0,23.0,0.07,,Overcast,160,2013-09-22 21:15:00
2:35 PM,57.2,53.6,88,29.69,9.0,SSE,13.8,24.2,0.11,,Mostly Cloudy,150,2013-09-22 21:35:00
2:55 PM,57.2,53.6,88,29.69,7.0,SSE,13.8,20.7,0.14,,Mostly Cloudy,150,2013-09-22 21:55:00
3:15 PM,57.2,53.6,88,29.69,10.0,SSE,15.0,20.7,0.03,,Overcast,160,2013-09-22 22:15:00
3:35 PM,57.2,51.8,82,29.71,3.0,SE,5.8,-,0.17,,Overcast,140,2013-09-22 22:35:00
3:55 PM,57.2,53.6,88,29.71,8.0,SSE,10.4,-,0.20,,Overcast,160,2013-09-22 22:55:00
4:15 PM,57.2,53.6,88,29.71,10.0,SSE,10.4,-,N/A,,Overcast,150,2013-09-22 23:15:00
4:35 PM,59.0,53.6,82,29.72,10.0,SSE,10.4,-,0.01,,Mostly Cloudy,150,2013-09-22 23:35:00
4:55 PM,60.8,53.6,77,29.73,10.0,SSE,10.4,17.3,0.01,,Mostly Cloudy,160,2013-09-22 23:55:00
5:15 PM,59.0,53.6,82,29.73,10.0,SSE,10.4,-,N/A,,Overcast,160,2013-09-23 00:15:00
5:35 PM,60.8,53.6,77,29.73,10.0,SSE,6.9,-,N/A,,Scattered Clouds,160,2013-09-23 00:35:00
5:55 PM,60.8,53.6,77,29.74,10.0,SE,6.9,-,N/A,,Mostly Cloudy,140,2013-09-23 00:55:00
6:15 PM,59.0,53.6,82,29.75,10.0,SSE,5.8,-,N/A,,Overcast,150,2013-09-23 01:15:00
6:35 PM,59.0,53.6,82,29.76,10.0,SSE,5.8,-,N/A,,Overcast,150,2013-09-23 01:35:00
6:55 PM,59.0,53.6,82,29.76,10.0,SSE,9.2,-,N/A,,Mostly Cloudy,150,2013-09-23 01:55:00
7:15 PM,57.2,53.6,88,29.77,10.0,SE,6.9,-,N/A,,Scattered Clouds,140,2013-09-23 02:15:00
7:35 PM,59.0,53.6,82,29.78,10.0,SE,9.2,-,N/A,,Mostly Cloudy,130,2013-09-23 02:35:00
7:55 PM,57.2,53.6,88,29.79,10.0,SE,5.8,-,N/A,,Mostly Cloudy,130,2013-09-23 02:55:00
8:15 PM,57.2,53.6,88,29.79,10.0,SE,4.6,-,N/A,,Overcast,140,2013-09-23 03:15:00
8:35 PM,57.2,53.6,88,29.81,10.0,SE,5.8,-,N/A,,Mostly Cloudy,130,2013-09-23 03:35:00
8:55 PM,57.2,53.6,88,29.81,10.0,SE,5.8,-,N/A,,Mostly Cloudy,140,2013-09-23 03:55:00
9:15 PM,57.2,53.6,88,29.82,10.0,SE,3.5,-,N/A,,Overcast,130,2013-09-23 04:15:00
9:35 PM,57.2,53.6,88,29.83,8.0,Calm,Calm,-,0.05,,Overcast,0,2013-09-23 04:35:00
9:55 PM,57.2,53.6,88,29.84,5.0,SSE,4.6,-,0.10,,Overcast,160,2013-09-23 04:55:00
10:15 PM,57.2,53.6,88,29.84,5.0,Calm,Calm,-,0.09,,Mostly Cloudy,0,2013-09-23 05:15:00
10:35 PM,57.2,53.6,88,29.84,10.0,SSE,4.6,-,0.09,,Overcast,150,2013-09-23 05:35:00
10:55 PM,57.2,53.6,88,29.85,10.0,ESE,4.6,-,0.09,,Overcast,120,2013-09-23 05:55:00
11:15 PM,57.2,53.6,88,29.86,10.0,SE,5.8,-,N/A,,Overcast,140,2013-09-23 06:15:00
11:35 PM,55.4,51.8,88,29.86,10.0,SE,8.1,-,N/A,,Scattered Clouds,140,2013-09-23 06:35:00
11:55 PM,55.4,51.8,88,29.87,10.0,ESE,8.1,-,N/A,,Mostly Cloudy,120,2013-09-23 06:55:00